When you browse on this site, cookies collect data to enhance your experience and personalize the content and advertising you see.
Visit our Privacy Policy to learn more. By continuing to use the site, you agree to this use of cookies and data.
  • In Hungary
  • List of Countries
  • For 7 days
  • Water Temperature
  • Weather Map
  • News
  • Weather Widgets
  • user-avatar
    Login

    Hourly Weather Raevka

    Today, 14 October, Monday

    Time Temperature Precipitation Wind Pressure Humidity
    00:00 +7°C° 0 mm 4 mps 753 mmHg 85%
    01:00 +7°C° 0 mm 4 mps 753 mmHg 87%
    02:00 +6°C° 0 mm 4 mps 754 mmHg 88%
    03:00 +6°C° 0 mm 4 mps 754 mmHg 91%
    04:00 +6°C° 0 mm 5 mps 754 mmHg 91%
    05:00 +6°C° 0 mm 5 mps 754 mmHg 91%
    06:00 +6°C° 0 mm 5 mps 754 mmHg 91%
    07:00 +7°C° 0 mm 5 mps 755 mmHg 88%
    08:00 +8°C° 0 mm 6 mps 755 mmHg 84%
    09:00 +8°C° 0 mm 6 mps 756 mmHg 81%
    10:00 +9°C° 0 mm 6 mps 756 mmHg 78%
    11:00 +10°C° 0 mm 6 mps 757 mmHg 75%
    12:00 +10°C° 0 mm 7 mps 757 mmHg 72%
    13:00 +10°C° 0 mm 6 mps 757 mmHg 73%
    14:00 +10°C° 0 mm 6 mps 758 mmHg 74%
    15:00 +10°C° 0 mm 6 mps 758 mmHg 75%
    16:00 +9°C° 0 mm 5 mps 758 mmHg 77%
    17:00 +9°C° 0 mm 5 mps 758 mmHg 79%
    18:00 +9°C° 0 mm 5 mps 759 mmHg 80%
    19:00 +8°C° 0 mm 4 mps 759 mmHg 80%
    20:00 +8°C° 0 mm 4 mps 759 mmHg 80%
    21:00 +9°C° 0 mm 3 mps 759 mmHg 80%
    22:00 +8°C° 0 mm 3 mps 759 mmHg 83%
    23:00 +8°C° 0 mm 3 mps 758 mmHg 86%

    Tomorrow, 15 October, Tuesday

    Time Temperature Precipitation Wind Pressure Humidity
    00:00 +7°C° 0 mm 3 mps 758 mmHg 89%
    01:00 +8°C° 0.4 mm 3 mps 757 mmHg 90%
    02:00 +8°C° 0.4 mm 3 mps 757 mmHg 92%
    03:00 +8°C° 0.4 mm 3 mps 756 mmHg 94%
    04:00 +8°C° 2.2 mm 5 mps 755 mmHg 94%
    05:00 +9°C° 2.2 mm 6 mps 754 mmHg 94%
    06:00 +10°C° 2.2 mm 7 mps 752 mmHg 94%
    07:00 +11°C° 0.8 mm 8 mps 752 mmHg 92%
    08:00 +11°C° 0.8 mm 8 mps 752 mmHg 90%
    09:00 +12°C° 0.8 mm 8 mps 751 mmHg 89%
    10:00 +13°C° 0 mm 8 mps 751 mmHg 85%
    11:00 +15°C° 0 mm 8 mps 751 mmHg 82%
    12:00 +15°C° 0 mm 8 mps 751 mmHg 78%
    13:00 +15°C° 0.3 mm 8 mps 751 mmHg 78%
    14:00 +15°C° 0.3 mm 8 mps 752 mmHg 77%
    15:00 +15°C° 0.3 mm 8 mps 752 mmHg 76%
    16:00 +14°C° 0.1 mm 7 mps 753 mmHg 78%
    17:00 +12°C° 0.1 mm 7 mps 754 mmHg 81%
    18:00 +10°C° 0.1 mm 6 mps 754 mmHg 83%
    19:00 +9°C° 0 mm 6 mps 755 mmHg 84%
    20:00 +8°C° 0 mm 5 mps 756 mmHg 85%
    21:00 +7°C° 0 mm 5 mps 757 mmHg 86%
    22:00 +7°C° 0 mm 5 mps 758 mmHg 85%
    23:00 +6°C° 0 mm 5 mps 758 mmHg 84%

    Day after tomorrow, 16 October, Wednesday

    Time Temperature Precipitation Wind Pressure Humidity
    00:00 +5°C° 0 mm 5 mps 759 mmHg 83%
    01:00 +5°C° 0 mm 5 mps 760 mmHg 79%
    02:00 +5°C° 0 mm 5 mps 760 mmHg 76%
    03:00 +3°C° 0 mm 5 mps 761 mmHg 72%
    04:00 +3°C° 0 mm 5 mps 761 mmHg 72%
    05:00 +2°C° 0 mm 5 mps 762 mmHg 72%
    06:00 +1°C° 0 mm 4 mps 762 mmHg 73%
    07:00 +2°C° 0 mm 5 mps 763 mmHg 73%
    08:00 +3°C° 0 mm 5 mps 764 mmHg 72%
    09:00 +3°C° 0 mm 5 mps 764 mmHg 72%
    10:00 +5°C° 0 mm 5 mps 765 mmHg 70%
    11:00 +5°C° 0 mm 5 mps 765 mmHg 68%
    12:00 +6°C° 0 mm 4 mps 765 mmHg 65%
    13:00 +6°C° 0 mm 4 mps 765 mmHg 66%
    14:00 +6°C° 0 mm 4 mps 766 mmHg 66%
    15:00 +6°C° 0 mm 4 mps 766 mmHg 66%
    16:00 +5°C° 0 mm 3 mps 766 mmHg 70%
    17:00 +4°C° 0 mm 3 mps 767 mmHg 74%
    18:00 +4°C° 0 mm 2 mps 767 mmHg 78%
    19:00 +5°C° 0 mm 1 mps 767 mmHg 80%
    20:00 +4°C° 0 mm 1 mps 767 mmHg 82%
    21:00 +3°C° 0 mm 0 mps 768 mmHg 84%
    22:00 +3°C° 0 mm 0 mps 768 mmHg 85%
    23:00 +2°C° 0 mm 0 mps 768 mmHg 85%

    17 October, Thursday

    Time Temperature Precipitation Wind Pressure Humidity
    00:00 +2°C° 0 mm 0 mps 768 mmHg 86%
    01:00 +3°C° 0 mm 1 mps 768 mmHg 87%
    02:00 +3°C° 0 mm 1 mps 768 mmHg 87%
    03:00 +3°C° 0 mm 1 mps 768 mmHg 88%
    04:00 +3°C° 0 mm 1 mps 768 mmHg 87%
    05:00 +3°C° 0 mm 1 mps 768 mmHg 87%
    06:00 +2°C° 0 mm 2 mps 768 mmHg 86%
    07:00 +3°C° 0 mm 2 mps 768 mmHg 84%
    08:00 +2°C° 0 mm 3 mps 767 mmHg 81%
    09:00 +3°C° 0 mm 3 mps 767 mmHg 79%
    10:00 +4°C° 0 mm 4 mps 767 mmHg 74%
    11:00 +5°C° 0 mm 5 mps 766 mmHg 69%
    12:00 +5°C° 0 mm 6 mps 766 mmHg 65%
    13:00 +5°C° 0 mm 6 mps 765 mmHg 63%
    14:00 +7°C° 0 mm 6 mps 764 mmHg 61%
    15:00 +7°C° 0 mm 6 mps 763 mmHg 60%
    16:00 +7°C° 0 mm 6 mps 763 mmHg 61%
    17:00 +5°C° 0 mm 6 mps 762 mmHg 63%
    18:00 +5°C° 0 mm 6 mps 761 mmHg 64%
    19:00 +5°C° 0 mm 6 mps 761 mmHg 63%
    20:00 +5°C° 0 mm 6 mps 760 mmHg 62%
    21:00 +5°C° 0 mm 6 mps 760 mmHg 61%
    22:00 +5°C° 0 mm 6 mps 759 mmHg 60%
    23:00 +5°C° 0 mm 6 mps 759 mmHg 60%

    18 October, Friday

    Time Temperature Precipitation Wind Pressure Humidity
    00:00 +5°C° 0 mm 6 mps 758 mmHg 59%
    01:00 +5°C° 0 mm 6 mps 757 mmHg 61%
    02:00 +5°C° 0 mm 6 mps 757 mmHg 63%
    03:00 +5°C° 0 mm 6 mps 756 mmHg 65%
    04:00 +5°C° 0.2 mm 6 mps 756 mmHg 70%
    05:00 +6°C° 0.2 mm 5 mps 755 mmHg 75%
    06:00 +6°C° 0.2 mm 5 mps 755 mmHg 81%
    07:00 +7°C° 0 mm 5 mps 755 mmHg 82%
    08:00 +8°C° 0 mm 6 mps 756 mmHg 84%
    09:00 +9°C° 0 mm 6 mps 756 mmHg 86%
    10:00 +7°C° 0.1 mm 6 mps 756 mmHg 80%
    11:00 +5°C° 0.1 mm 6 mps 757 mmHg 73%
    12:00 +4°C° 0.1 mm 6 mps 757 mmHg 67%
    13:00 +3°C° 0 mm 6 mps 758 mmHg 66%
    14:00 +3°C° 0 mm 7 mps 758 mmHg 64%
    15:00 +3°C° 0 mm 7 mps 759 mmHg 63%
    16:00 +3°C° 0 mm 7 mps 760 mmHg 64%
    17:00 +2°C° 0 mm 7 mps 760 mmHg 64%
    18:00 +2°C° 0 mm 6 mps 761 mmHg 65%
    19:00 0°C° 0 mm 7 mps 761 mmHg 66%
    20:00 0°C° 0 mm 7 mps 762 mmHg 68%
    21:00 -1°C° 0 mm 7 mps 762 mmHg 69%
    22:00 -1°C° 0 mm 7 mps 762 mmHg 69%
    23:00 -1°C° 0 mm 6 mps 763 mmHg 68%

    19 October, Saturday

    Time Temperature Precipitation Wind Pressure Humidity
    00:00 -1°C° 0 mm 6 mps 763 mmHg 68%
    01:00 -2°C° 0 mm 6 mps 764 mmHg 71%
    02:00 -1°C° 0 mm 5 mps 764 mmHg 74%
    03:00 -2°C° 0 mm 5 mps 765 mmHg 77%
    04:00 -2°C° 0 mm 5 mps 765 mmHg 76%
    05:00 -2°C° 0 mm 5 mps 766 mmHg 76%
    06:00 -2°C° 0 mm 5 mps 766 mmHg 75%
    07:00 -2°C° 0 mm 5 mps 766 mmHg 72%
    08:00 -1°C° 0 mm 5 mps 767 mmHg 69%
    09:00 -1°C° 0 mm 5 mps 767 mmHg 66%
    10:00 0°C° 0 mm 5 mps 767 mmHg 62%
    11:00 +1°C° 0 mm 5 mps 768 mmHg 57%
    12:00 +3°C° 0 mm 4 mps 768 mmHg 52%
    13:00 +3°C° 0 mm 4 mps 768 mmHg 52%
    14:00 +3°C° 0 mm 4 mps 768 mmHg 52%
    15:00 +3°C° 0 mm 4 mps 768 mmHg 52%
    16:00 +2°C° 0 mm 3 mps 768 mmHg 58%
    17:00 +2°C° 0 mm 2 mps 768 mmHg 63%
    18:00 +1°C° 0 mm 2 mps 769 mmHg 69%
    19:00 -1°C° 0 mm 2 mps 769 mmHg 70%
    20:00 +1°C° 0 mm 1 mps 769 mmHg 72%
    21:00 +1°C° 0 mm 1 mps 769 mmHg 73%
    22:00 +1°C° 0 mm 1 mps 769 mmHg 72%
    23:00 +1°C° 0 mm 1 mps 769 mmHg 72%
    Show more